Time,TemperatureF,DewpointF,PressureIn,WindDirection,WindDirectionDegrees,WindSpeedMPH,WindSpeedGustMPH,Humidity,HourlyPrecipIn,Conditions,Clouds,dailyrainin,SoftwareType,DateUTC
2013-04-20 07:02:00,71.0,65.0,30.08,NE,53,6.0,13.0,81,0.00,,,0.01,,2013-04-20 17:02:00,
2013-04-20 07:12:00,71.0,65.0,30.08,ENE,68,3.0,10.0,80,0.00,,,0.00,,2013-04-20 17:12:00,
2013-04-20 07:22:00,71.0,65.0,30.08,ENE,68,3.0,10.0,80,0.00,,,0.00,,2013-04-20 17:22:00,
2013-04-20 07:32:00,71.0,65.0,30.08,NE,52,5.0,10.0,80,0.00,,,0.00,,2013-04-20 17:32:00,
2013-04-20 07:41:00,71.0,65.0,30.08,NE,52,5.0,10.0,80,0.00,,,0.00,,2013-04-20 17:41:00,
2013-04-20 07:52:00,72.0,65.0,30.09,NE,40,5.0,11.0,79,0.00,,,0.00,,2013-04-20 17:52:00,
2013-04-20 08:01:00,73.0,66.0,30.09,NE,45,6.0,10.0,80,0.00,,,0.00,,2013-04-20 18:01:00,
2013-04-20 08:12:00,73.0,66.0,30.09,ENE,57,6.0,11.0,79,0.00,,,0.00,,2013-04-20 18:12:00,
2013-04-20 08:22:00,73.0,66.0,30.09,ENE,57,6.0,11.0,79,0.00,,,0.00,,2013-04-20 18:22:00,
2013-04-20 08:32:00,74.0,66.0,30.09,ENE,68,4.0,9.0,77,0.00,,,0.00,,2013-04-20 18:32:00,
2013-04-20 08:41:00,74.0,66.0,30.09,ENE,68,4.0,9.0,77,0.00,,,0.00,,2013-04-20 18:41:00,
2013-04-20 08:52:00,74.0,66.0,30.09,NE,42,2.0,10.0,75,0.00,,,0.00,,2013-04-20 18:52:00,
2013-04-20 09:01:00,75.0,66.0,30.10,NE,53,3.0,10.0,74,0.00,,,0.00,,2013-04-20 19:01:00,
2013-04-20 09:11:00,75.0,66.0,30.10,North,10,5.0,9.0,73,0.00,,,0.00,,2013-04-20 19:11:00,
2013-04-20 09:21:00,75.0,66.0,30.10,North,10,5.0,9.0,73,0.00,,,0.00,,2013-04-20 19:21:00,
2013-04-20 09:31:00,75.0,66.0,30.10,NNE,20,5.0,9.0,73,0.00,,,0.00,,2013-04-20 19:31:00,
2013-04-20 09:41:00,76.0,67.0,30.10,NNW,333,3.0,8.0,74,0.00,,,0.00,,2013-04-20 19:41:00,
2013-04-20 09:52:00,76.0,67.0,30.10,NNW,333,3.0,8.0,74,0.00,,,0.00,,2013-04-20 19:52:00,
2013-04-20 10:01:00,77.0,67.0,30.10,NNW,337,2.0,8.0,71,0.00,,,0.00,,2013-04-20 20:01:00,
2013-04-20 10:11:00,78.0,66.0,30.10,NNW,334,2.0,6.0,67,0.00,,,0.00,,2013-04-20 20:11:00,
2013-04-20 10:21:00,78.0,66.0,30.10,NNW,334,2.0,6.0,67,0.00,,,0.00,,2013-04-20 20:21:00,
2013-04-20 10:32:00,78.0,66.0,30.10,NNE,23,3.0,7.0,66,0.00,,,0.00,,2013-04-20 20:32:00,
2013-04-20 10:42:00,78.0,66.0,30.10,NNE,23,3.0,7.0,66,0.00,,,0.00,,2013-04-20 20:42:00,
2013-04-20 10:52:00,77.0,65.0,30.10,North,9,2.0,5.0,67,0.00,,,0.00,,2013-04-20 20:52:00,
2013-04-20 11:01:00,77.0,66.0,30.09,WNW,294,6.0,11.0,68,0.00,,,0.00,,2013-04-20 21:01:00,
2013-04-20 11:12:00,77.0,66.0,30.09,South,187,2.0,9.0,69,0.00,,,0.00,,2013-04-20 21:12:00,
2013-04-20 11:21:00,77.0,66.0,30.09,South,187,2.0,9.0,69,0.00,,,0.00,,2013-04-20 21:21:00,
2013-04-20 11:32:00,79.0,67.0,30.09,SW,231,2.0,6.0,67,0.00,,,0.00,,2013-04-20 21:32:00,
2013-04-20 11:42:00,79.0,67.0,30.09,SW,231,2.0,6.0,67,0.00,,,0.00,,2013-04-20 21:42:00,
2013-04-20 11:53:00,77.0,67.0,30.09,South,173,4.0,12.0,71,0.00,,,0.00,,2013-04-20 21:53:00,
2013-04-20 12:02:00,79.0,68.0,30.09,SSE,152,2.0,8.0,68,0.00,,,0.00,,2013-04-20 22:02:00,
2013-04-20 12:12:00,78.0,67.0,30.08,WSW,238,6.0,10.0,68,0.00,,,0.00,,2013-04-20 22:12:00,
2013-04-20 12:22:00,78.0,67.0,30.08,WSW,238,6.0,10.0,68,0.00,,,0.00,,2013-04-20 22:22:00,
2013-04-20 12:32:00,80.0,67.0,30.08,SSE,148,6.0,12.0,65,0.00,,,0.00,,2013-04-20 22:32:00,
2013-04-20 12:41:00,80.0,67.0,30.08,SSE,148,6.0,12.0,65,0.00,,,0.00,,2013-04-20 22:41:00,
2013-04-20 12:52:00,78.0,66.0,30.07,SE,129,6.0,12.0,67,0.00,,,0.00,,2013-04-20 22:52:00,
2013-04-20 13:02:00,79.0,67.0,30.07,ESE,117,4.0,13.0,67,0.00,,,0.00,,2013-04-20 23:02:00,
2013-04-20 13:11:00,80.0,67.0,30.06,SSE,159,3.0,12.0,65,0.00,,,0.00,,2013-04-20 23:11:00,
2013-04-20 13:22:00,80.0,67.0,30.06,SSE,159,3.0,12.0,65,0.00,,,0.00,,2013-04-20 23:22:00,
2013-04-20 13:31:00,80.0,68.0,30.05,SW,223,1.0,11.0,67,0.00,,,0.00,,2013-04-20 23:31:00,
2013-04-20 13:41:00,80.0,68.0,30.05,SW,223,1.0,11.0,67,0.00,,,0.00,,2013-04-20 23:41:00,
2013-04-20 13:52:00,79.0,66.0,30.05,ESE,114,6.0,11.0,65,0.00,,,0.00,,2013-04-20 23:52:00,
2013-04-20 14:01:00,80.0,68.0,30.04,SSE,150,4.0,11.0,67,0.00,,,0.00,,2013-04-21 00:01:00,
2013-04-20 14:11:00,80.0,68.0,30.04,SSE,150,4.0,11.0,67,0.00,,,0.00,,2013-04-21 00:11:00,
2013-04-20 14:21:00,79.0,67.0,30.04,SE,128,5.0,14.0,67,0.00,,,0.00,,2013-04-21 00:21:00,
2013-04-20 14:31:00,79.0,67.0,30.03,SE,138,8.0,12.0,67,0.00,,,0.00,,2013-04-21 00:31:00,
2013-04-20 14:41:00,79.0,67.0,30.03,SE,138,8.0,12.0,67,0.00,,,0.00,,2013-04-21 00:41:00,
2013-04-20 14:52:00,80.0,68.0,30.03,SSE,167,4.0,9.0,66,0.00,,,0.00,,2013-04-21 00:52:00,
2013-04-20 15:01:00,79.0,68.0,30.02,SSW,213,5.0,12.0,68,0.00,,,0.00,,2013-04-21 01:01:00,
2013-04-20 15:11:00,79.0,68.0,30.02,SSW,213,5.0,12.0,68,0.00,,,0.00,,2013-04-21 01:11:00,
2013-04-20 15:21:00,78.0,68.0,30.02,SE,133,6.0,13.0,71,0.00,,,0.00,,2013-04-21 01:21:00,
2013-04-20 15:31:00,78.0,67.0,30.02,SE,142,7.0,13.0,70,0.00,,,0.00,,2013-04-21 01:31:00,
2013-04-20 15:41:00,78.0,67.0,30.02,SE,142,7.0,13.0,70,0.00,,,0.00,,2013-04-21 01:41:00,
2013-04-20 15:52:00,78.0,67.0,30.02,SE,144,6.0,11.0,69,0.00,,,0.00,,2013-04-21 01:52:00,
2013-04-20 16:01:00,77.0,67.0,30.02,SSE,153,3.0,13.0,72,0.00,,,0.00,,2013-04-21 02:01:00,
2013-04-20 16:11:00,77.0,67.0,30.02,SSE,153,3.0,13.0,72,0.00,,,0.00,,2013-04-21 02:11:00,
2013-04-20 16:21:00,78.0,68.0,30.02,SE,138,7.0,13.0,72,0.00,,,0.00,,2013-04-21 02:21:00,
2013-04-20 16:31:00,77.0,68.0,30.03,South,189,4.0,13.0,73,0.00,,,0.00,,2013-04-21 02:31:00,
2013-04-20 16:41:00,77.0,68.0,30.03,South,189,4.0,13.0,73,0.00,,,0.00,,2013-04-21 02:41:00,
2013-04-20 16:52:00,76.0,67.0,30.03,SSE,153,7.0,14.0,74,0.00,,,0.00,,2013-04-21 02:52:00,
2013-04-20 17:01:00,75.0,67.0,30.03,ESE,113,5.0,15.0,76,0.00,,,0.00,,2013-04-21 03:01:00,
2013-04-20 17:11:00,75.0,67.0,30.03,ESE,113,5.0,15.0,76,0.00,,,0.00,,2013-04-21 03:11:00,
2013-04-20 17:21:00,75.0,67.0,30.03,SE,137,5.0,16.0,77,0.00,,,0.00,,2013-04-21 03:21:00,
2013-04-20 17:32:00,75.0,68.0,30.03,ESE,114,3.0,10.0,78,0.00,,,0.00,,2013-04-21 03:32:00,
2013-04-20 17:42:00,75.0,68.0,30.03,ESE,114,3.0,10.0,78,0.00,,,0.00,,2013-04-21 03:42:00,
2013-04-20 17:52:00,74.0,66.0,30.03,SE,133,2.0,8.0,77,0.00,,,0.00,,2013-04-21 03:52:00,
2013-04-20 18:02:00,74.0,67.0,30.03,SE,133,1.0,7.0,78,0.00,,,0.00,,2013-04-21 04:02:00,
2013-04-20 18:12:00,74.0,67.0,30.03,SSE,152,3.0,9.0,78,0.00,,,0.00,,2013-04-21 04:12:00,
2013-04-20 18:22:00,74.0,67.0,30.03,SSE,152,3.0,9.0,78,0.00,,,0.00,,2013-04-21 04:22:00,
2013-04-20 18:32:00,74.0,67.0,30.03,SE,141,1.0,7.0,79,0.00,,,0.00,,2013-04-21 04:32:00,
2013-04-20 18:42:00,74.0,67.0,30.03,SE,141,1.0,7.0,79,0.00,,,0.00,,2013-04-21 04:42:00,
2013-04-20 18:53:00,73.0,66.0,30.03,SE,132,1.0,5.0,79,0.00,,,0.00,,2013-04-21 04:53:00,
2013-04-20 19:02:00,73.0,66.0,30.04,SE,132,0.0,5.0,80,0.00,,,0.00,,2013-04-21 05:02:00,
2013-04-20 19:12:00,73.0,66.0,30.04,SE,132,0.0,5.0,80,0.00,,,0.00,,2013-04-21 05:12:00,
2013-04-20 19:21:00,73.0,67.0,30.04,SE,130,0.0,4.0,81,0.00,,,0.00,,2013-04-21 05:21:00,
2013-04-20 19:32:00,73.0,66.0,30.05,SSE,148,0.0,3.0,79,0.00,,,0.00,,2013-04-21 05:32:00,
2013-04-20 19:42:00,73.0,66.0,30.05,SSE,148,0.0,3.0,79,0.00,,,0.00,,2013-04-21 05:42:00,
2013-04-20 19:52:00,73.0,66.0,30.05,SSE,148,0.0,0.0,79,0.00,,,0.00,,2013-04-21 05:52:00,
2013-04-20 20:01:00,73.0,66.0,30.05,SSE,148,0.0,1.0,79,0.00,,,0.00,,2013-04-21 06:01:00,
2013-04-20 20:11:00,73.0,66.0,30.06,SSE,148,0.0,0.0,80,0.00,,,0.00,,2013-04-21 06:11:00,
2013-04-20 20:21:00,73.0,66.0,30.06,SSE,148,0.0,0.0,80,0.00,,,0.00,,2013-04-21 06:21:00,
2013-04-20 20:32:00,73.0,66.0,30.07,SSE,148,2.0,4.0,80,0.00,,,0.00,,2013-04-21 06:32:00,
2013-04-20 20:42:00,73.0,66.0,30.07,SSE,148,2.0,4.0,80,0.00,,,0.00,,2013-04-21 06:42:00,
2013-04-20 20:52:00,73.0,67.0,30.07,SSE,148,0.0,2.0,81,0.00,,,0.00,,2013-04-21 06:52:00,
2013-04-20 21:01:00,72.0,66.0,30.07,SSE,148,0.0,0.0,81,0.00,,,0.00,,2013-04-21 07:01:00,
2013-04-20 21:11:00,72.0,66.0,30.07,SSE,148,0.0,0.0,82,0.00,,,0.00,,2013-04-21 07:11:00,
2013-04-20 21:21:00,72.0,66.0,30.07,SSE,148,0.0,0.0,82,0.00,,,0.00,,2013-04-21 07:21:00,
2013-04-20 21:31:00,72.0,66.0,30.08,SSE,148,0.0,0.0,82,0.00,,,0.00,,2013-04-21 07:31:00,
2013-04-20 21:41:00,72.0,66.0,30.08,SSE,148,0.0,0.0,82,0.00,,,0.00,,2013-04-21 07:41:00,
2013-04-20 21:52:00,72.0,67.0,30.09,SSE,148,0.0,0.0,83,0.00,,,0.00,,2013-04-21 07:52:00,
2013-04-20 22:01:00,72.0,67.0,30.08,SSE,148,0.0,0.0,83,0.00,,,0.00,,2013-04-21 08:01:00,
2013-04-20 22:11:00,72.0,67.0,30.08,SSE,148,0.0,0.0,83,0.00,,,0.00,,2013-04-21 08:11:00,
2013-04-20 22:21:00,72.0,67.0,30.08,SSE,148,0.0,0.0,83,0.00,,,0.00,,2013-04-21 08:21:00,
2013-04-20 22:31:00,72.0,67.0,30.08,SSE,148,0.0,0.0,83,0.00,,,0.00,,2013-04-21 08:31:00,
2013-04-20 22:41:00,72.0,67.0,30.08,SSE,148,0.0,0.0,83,0.00,,,0.00,,2013-04-21 08:41:00,